Location: Gleizolles
(44.4833°N, 6.7667°E)
Time: 01:55:31
(UTC+00:00)

A-11 Canister half - Pass Details

Date: 01 July 2024
Orbit: 1524 x 1684 km, 47.3° (Epoch: 20 May)

Event Time Altitude Azimuth Distance (km) Brightness Sun altitude
Rises 14:41:44 0° 289° (WNW) 4,717 12.1 46.8°
Maximum altitude 14:54:11 83° 203° (SSW) 1,537 10.0 44.6°
Drops below altitude 10° 15:03:29 10° 117° (ESE) 3,692 10.7 43.0°
Sets 15:06:31 0° 117° (ESE) 4,682 11.2 42.5°
